TITAN 3C TRANSTAGE DEB, 39297

Orbit data source: Space-Track

TITAN 3C TRANSTAGE DEB, 39297 is space debris in GEO originally from a launch on Thu, 26 Sep 1968 UTC launched from the Air Force Eastern Test Range (AFETR). Debris objects in space refer to the collection of defunct objects orbiting the Earth. Examples of debris include non-operational satellites, rocket bodies, and fragments generated from explosions, collisions, or faulty payload assembly.

Not visible in the next 10 days
Identifier
39297, 1968-081AH
Orbit
GEO
Country
Flag of USUS
Related business
Manufacturer
Unknown
Mission
Spacecraft
Bus & Motor
Unknown
Mass
Unknown
Launch date (UTC)
1968-09-26 (57 years ago)
Launch vehicle
Unknown
Launch site
Air Force Eastern Test Range (AFETR)
Object type
Payload
Rocket body
Debris
Shape & HBR
Unknown shape, 1.1 m
Radar Cross Section
RCS unknown

Expand to show TLE details & history
Last TLE update: 2 days ago

TLE from 2 days ago
0 TITAN 3C TRANSTAGE DEB
1 39297U 68081AH  25304.88305464  .00000044  00000-0  00000-0 0  9993
2 39297   1.4073   7.8850 0211692 315.8395  41.9162  1.00373911 14182
Epoch: 2025-10-31T21:11Z
TLE epoch observation values (Epoch: 2025-10-31T21:11:35.920Z)
Latitude
-0°
Longitude
8.92348°
Altitude
35,101.99 km
Speed
3.124 km/s
True Right ascension
00h 28m 58s
True Declination
0° 00' 00"
Sunlit
Object was in daylight at epoch
Visualization orbit readout
Latitude
Unknown
Longitude
Unknown
Altitude
Unknown
Speed
Unknown
Apparent Right ascension
Unknown
Apparent Declination
Unknown
Sunlit
N/A
Visualization observer readout
Local Sidereal Time
10:42:44
Azimuth
Unknown
Elevation
Unknown
Doppler factor
Unknown
Orbital elements
Apogee altitude
36,651.071 km
Perigee altitude
34,867.05 km
Semi-major axis
42,137.197 km
Eccentricity
0.02117
Inclination
1.4073°
RAAN
7.885°
Arg. of periapsis
315.8395°
True anomaly
43.56904°
Mean anomaly
41.9162°
Eccentric anomaly
42.73936°
Mean motion
0.25093 °/min
Orbital period
1,434.69 mins
BSTAR
0
Loading maneuver chart data...
Computing Atmospheric mass density...

Documentation

Showing up to 5 results
|